Location: Hurstbourne Priors
(51.2000°N, 1.3667°W)
Time: 00:53:33
(UTC+00:00)

BREEZE-M DEB (TANK) - Pass Details

Date: 09 April 2020
Orbit: 270 x 13103 km, 49.6° (Epoch: 29 May)

Event Time Altitude Azimuth Distance (km) Brightness Sun altitude
Rises 21:42:36 0° 273° (W) 2,599 6.4 -23.1°
Reaches altitude 10° 21:45:07 10° 268° (W) 1,289 4.7 -23.4°
Enters shadow 21:45:24 12° 267° (W) 1,143 4.4 -23.4°
